YAOGAN 20C

导读 | 星芒AI

YAOGAN 20C 是一颗由中国研制并发射的遥感卫星,主要用于科学实验、国土资源调查、环境监测以及灾害预警等领域。该卫星属于中国高分辨率对地观测系统的一部分,具备高精度成像能力,能够获取地表高分辨率图像,为农业、林业、城市规划和应急响应提供数据支持。其发射进一步提升了中国在遥感技术和空间应用方面的能力。

基本信息
目录编号:
40111
目录名称:
YAOGAN 20C
国际标识:
2014-047C
轨道中心:
EARTH
卫星名称:
YAOGAN 20C
卫星全名:
--
卫星状态:
在轨 (已飞行4146 天)
发射日期:
2014-08-09 UTC
国别 :
中国 (CN)
星等 :
--
轨道信息
数据来源 国际轨道数据 AOE轨道数据
星历时间 2025-12-15T06:51:46+0800
19小时前
查看轨道信息
2025-12-15T07:00:00+0800
19小时前
查看轨道信息
半长轴 7467.27km 7467.252km
偏心率 0.037399 0.03736
轨道倾角 63.378° 63.388°
近地点辐角 14.109° 14.337°
升交点赤经 134.664° 134.658°
平近点角 347.005° 14.464°
近地点 809.866km 810.14km
远地点 1368.404km 1368.094km
周期 107.029分钟 107.029分钟
每日圈数 13.454267 13.454314
详细信息
使用方式:
暂无
2D轨道图
3D轨道图
轨道高度分析图
轨道倾角分析图
轨道综合分析图
查看轨道综合分析图